Date,TemperatureHighF,TemperatureAvgF,TemperatureLowF,DewpointHighF,DewpointAvgF,DewpointLowF,HumidityHigh,HumidityAvg,HumidityLow,PressureMaxIn,PressureMinIn,WindSpeedMaxMPH,WindSpeedAvgMPH,GustSpeedMaxMPH,PrecipitationSumIn
2013-3-1,79.0,64.7,50.0,50.0,47.0,40.0,81,57,31,0.00,40.00,16,9,31,0.00
2013-3-2,81.0,63.1,47.0,56.0,45.9,35.0,89,57,32,0.00,40.00,18,8,32,0.00
2013-3-3,76.0,62.6,50.0,57.0,51.8,46.0,91,71,47,0.00,40.00,10,6,19,0.00
2013-3-4,78.0,62.7,49.0,59.0,50.2,42.0,93,68,35,0.00,40.00,10,6,19,0.00
2013-3-5,76.0,63.0,50.0,61.0,53.8,47.0,93,74,41,0.00,40.00,9,6,17,0.00
2013-3-6,75.0,62.7,53.0,62.0,56.9,50.0,98,83,54,0.00,40.00,9,5,19,0.09
2013-3-7,74.0,62.4,52.0,62.0,56.7,49.0,97,83,52,0.00,40.00,9,5,17,0.09
2013-3-8,74.0,63.5,53.0,62.0,56.7,49.0,95,79,56,0.00,40.00,7,5,15,0.00
2013-3-9,74.0,63.3,55.0,64.0,57.8,52.0,97,83,61,0.00,40.00,9,6,17,0.01
2013-3-10,73.0,65.7,56.0,66.0,61.0,54.0,98,86,68,0.00,40.00,10,6,18,0.01
2013-3-11,78.0,65.4,55.0,65.0,59.5,51.0,97,83,60,0.00,40.00,9,6,16,0.99
2013-3-12,71.0,65.1,61.0,67.0,63.2,59.0,98,94,79,0.00,40.00,6,4,11,0.07
2013-3-13,76.0,65.2,57.0,65.0,61.5,56.0,98,89,61,0.00,40.00,9,5,18,0.01
2013-3-14,75.0,60.0,55.0,66.0,52.7,-99.9,98,87,63,0.00,40.00,7,4,11,0.22
2013-3-15,70.0,64.4,58.0,66.0,62.4,57.0,99,93,84,0.00,40.00,11,5,17,0.09
2013-3-16,68.0,64.4,61.0,64.0,61.5,59.0,98,90,79,0.00,40.00,5,3,12,0.01
2013-3-17,65.0,62.5,61.0,62.0,61.1,60.0,98,96,89,0.00,40.00,4,2,9,0.13
2013-3-18,72.0,63.9,59.0,62.0,59.9,58.0,98,88,64,0.00,40.00,7,4,16,0.01
2013-3-19,75.0,65.3,55.0,64.0,58.7,52.0,97,81,56,0.00,40.00,8,4,15,0.01
2013-3-20,74.0,64.9,58.0,65.0,60.4,55.0,96,86,64,0.00,40.00,7,4,10,0.44
2013-3-21,77.0,67.4,59.0,66.0,59.6,55.0,93,77,55,0.00,40.00,8,5,15,0.04
2013-3-22,77.0,65.4,56.0,64.0,58.3,50.0,95,79,52,0.00,40.00,7,5,17,0.00
2013-3-23,70.0,61.7,60.0,64.0,54.5,-99.9,98,86,76,0.00,40.00,6,4,9,0.01
2013-3-24,75.0,64.9,58.0,65.0,61.0,55.0,97,88,68,0.00,40.00,7,4,15,0.01
2013-3-25,73.0,66.0,59.0,65.0,55.2,-99.9,98,85,70,0.00,40.00,7,4,14,0.04
2013-3-26,72.0,65.5,63.0,64.0,62.8,61.0,99,91,75,0.00,40.00,6,3,13,0.16
2013-3-27,71.0,65.8,61.0,64.0,62.2,59.0,98,89,74,0.00,40.00,7,4,12,0.16
2013-3-28,71.0,65.8,57.0,64.0,58.8,54.0,92,79,58,0.00,40.00,9,5,18,0.03
2013-3-29,73.0,63.5,55.0,64.0,58.7,52.0,99,86,62,0.00,40.00,8,5,17,0.33
2013-3-30,73.0,65.2,59.0,65.0,62.5,58.0,99,92,71,0.00,40.00,8,4,12,0.85
2013-3-31,70.0,64.5,61.0,64.0,62.2,60.0,99,93,81,0.00,40.00,7,3,12,0.17